Location: Mitford
(51.2012°N, 114.5253°W)
Time: 23:01:54
(UTC+00:00)

Envisat - Visible Passes

Search period start: 23 August 2019 00:00
Search period end: 02 September 2019 00:00
Orbit: 764 x 766 km, 98.1° (Epoch: 23 August)

Date Brightness Start Highest point End Pass type
(mag) Time Alt. Az. Time Alt. Az. Time Alt. Az.
23 Aug 6.1 03:26:20 10° WSW 03:28:49 13° W 03:31:18 10° NW visible
26 Aug 5.9 03:14:12 10° SW 03:17:24 17° W 03:20:37 10° NW visible
29 Aug 5.8 03:02:17 10° SW 03:06:01 20° W 03:09:45 10° NW visible
31 Aug 6.2 03:29:48 10° WSW 03:31:53 12° W 03:33:59 10° WNW visible
